• In Deutschland
  • Länderverzeichnis
  • Für 7 Tage
  • Wassertemperatur
  • Satellitenkarten
  • Wetterkarte
  • Widgets
  • user-avatar
    Anmelden

    Stündliche Wetter San Miguel de Tucumán

    Heute, 21 Juli, Freitag

    Zeit Temperatur Niederschläge Wind Luftdruck Luftfeuchtigkeit
    00:00 +15°C° 0 mm 1 m/S 721 mmHg 41%
    01:00 +14°C° 0 mm 1 m/S 721 mmHg 42%
    02:00 +14°C° 0 mm 1 m/S 721 mmHg 43%
    03:00 +14°C° 0 mm 1 m/S 721 mmHg 44%
    04:00 +13°C° 0 mm 1 m/S 721 mmHg 45%
    05:00 +13°C° 0 mm 1 m/S 722 mmHg 45%
    06:00 +13°C° 0 mm 1 m/S 722 mmHg 45%
    07:00 +13°C° 0 mm 1 m/S 723 mmHg 44%
    08:00 +14°C° 0 mm 1 m/S 723 mmHg 44%
    09:00 +16°C° 0 mm 1 m/S 724 mmHg 39%
    10:00 +20°C° 0 mm 1 m/S 724 mmHg 33%
    11:00 +22°C° 0 mm 1 m/S 725 mmHg 28%
    12:00 +23°C° 0 mm 1 m/S 724 mmHg 27%
    13:00 +24°C° 0 mm 1 m/S 723 mmHg 26%
    14:00 +25°C° 0 mm 1 m/S 723 mmHg 24%
    15:00 +24°C° 0 mm 1 m/S 722 mmHg 27%
    16:00 +23°C° 0 mm 1 m/S 722 mmHg 30%
    17:00 +22°C° 0 mm 1 m/S 722 mmHg 33%
    18:00 +20°C° 0 mm 1 m/S 722 mmHg 36%
    19:00 +19°C° 0 mm 1 m/S 722 mmHg 38%
    20:00 +16°C° 0 mm 1 m/S 722 mmHg 41%
    21:00 +16°C° 0 mm 1 m/S 722 mmHg 41%
    22:00 +15°C° 0 mm 1 m/S 722 mmHg 41%
    23:00 +15°C° 0 mm 1 m/S 722 mmHg 42%

    Morgen, 22 Juli, Samstag

    Zeit Temperatur Niederschläge Wind Luftdruck Luftfeuchtigkeit
    00:00 +15°C° 0 mm 1 m/S 721 mmHg 42%
    01:00 +15°C° 0 mm 1 m/S 721 mmHg 43%
    02:00 +14°C° 0 mm 1 m/S 720 mmHg 44%
    03:00 +14°C° 0 mm 1 m/S 720 mmHg 44%
    04:00 +14°C° 0 mm 1 m/S 719 mmHg 45%
    05:00 +14°C° 0 mm 1 m/S 719 mmHg 45%
    06:00 +14°C° 0 mm 2 m/S 719 mmHg 45%
    07:00 +14°C° 0 mm 2 m/S 719 mmHg 45%
    08:00 +15°C° 0 mm 2 m/S 719 mmHg 44%
    09:00 +18°C° 0 mm 2 m/S 719 mmHg 39%
    10:00 +21°C° 0 mm 3 m/S 719 mmHg 35%
    11:00 +25°C° 0 mm 3 m/S 719 mmHg 30%
    12:00 +26°C° 0 mm 3 m/S 718 mmHg 29%
    13:00 +27°C° 0 mm 4 m/S 717 mmHg 29%
    14:00 +28°C° 0 mm 4 m/S 716 mmHg 28%
    15:00 +27°C° 0 mm 3 m/S 716 mmHg 32%
    16:00 +27°C° 0 mm 3 m/S 715 mmHg 35%
    17:00 +26°C° 0 mm 3 m/S 715 mmHg 39%
    18:00 +24°C° 0 mm 3 m/S 715 mmHg 42%
    19:00 +22°C° 0 mm 3 m/S 715 mmHg 45%
    20:00 +20°C° 0 mm 3 m/S 715 mmHg 47%
    21:00 +20°C° 0 mm 3 m/S 715 mmHg 47%
    22:00 +20°C° 0 mm 2 m/S 715 mmHg 46%
    23:00 +20°C° 0 mm 2 m/S 715 mmHg 46%

    übermorgen, 23 Juli, Sonntag

    Zeit Temperatur Niederschläge Wind Luftdruck Luftfeuchtigkeit
    00:00 +19°C° 0 mm 2 m/S 714 mmHg 46%
    01:00 +19°C° 0 mm 2 m/S 714 mmHg 47%
    02:00 +18°C° 0 mm 2 m/S 713 mmHg 48%
    03:00 +18°C° 0 mm 2 m/S 713 mmHg 50%
    04:00 +17°C° 0 mm 2 m/S 713 mmHg 51%
    05:00 +18°C° 0 mm 1 m/S 713 mmHg 53%
    06:00 +18°C° 0 mm 1 m/S 713 mmHg 53%
    07:00 +18°C° 0 mm 1 m/S 714 mmHg 52%
    08:00 +19°C° 0 mm 1 m/S 715 mmHg 52%
    09:00 +21°C° 0 mm 1 m/S 715 mmHg 47%
    10:00 +24°C° 0 mm 1 m/S 715 mmHg 42%
    11:00 +27°C° 0 mm 1 m/S 715 mmHg 37%
    12:00 +28°C° 0 mm 1 m/S 715 mmHg 34%
    13:00 +29°C° 0 mm 1 m/S 714 mmHg 32%
    14:00 +30°C° 0 mm 2 m/S 713 mmHg 30%
    15:00 +29°C° 0 mm 1 m/S 713 mmHg 34%
    16:00 +28°C° 0 mm 1 m/S 713 mmHg 37%
    17:00 +27°C° 0 mm 1 m/S 713 mmHg 41%
    18:00 +26°C° 0 mm 1 m/S 714 mmHg 45%
    19:00 +24°C° 0 mm 1 m/S 714 mmHg 50%
    20:00 +22°C° 0 mm 1 m/S 715 mmHg 55%
    21:00 +21°C° 0 mm 1 m/S 715 mmHg 55%
    22:00 +21°C° 0 mm 1 m/S 716 mmHg 55%
    23:00 +21°C° 0 mm 1 m/S 716 mmHg 55%

    24 Juli, Montag

    Zeit Temperatur Niederschläge Wind Luftdruck Luftfeuchtigkeit
    00:00 +20°C° 0 mm 1 m/S 716 mmHg 55%
    01:00 +20°C° 0 mm 1 m/S 716 mmHg 55%
    02:00 +20°C° 0 mm 1 m/S 716 mmHg 55%
    03:00 +20°C° 0 mm 1 m/S 716 mmHg 56%
    04:00 +19°C° 0 mm 1 m/S 716 mmHg 57%
    05:00 +19°C° 0 mm 1 m/S 716 mmHg 58%
    06:00 +19°C° 0 mm 1 m/S 717 mmHg 59%
    07:00 +19°C° 0 mm 1 m/S 718 mmHg 59%
    08:00 +19°C° 0 mm 1 m/S 718 mmHg 60%
    09:00 +21°C° 0 mm 1 m/S 719 mmHg 55%
    10:00 +23°C° 0 mm 2 m/S 719 mmHg 51%
    11:00 +25°C° 0 mm 2 m/S 719 mmHg 46%
    12:00 +26°C° 0 mm 2 m/S 719 mmHg 45%
    13:00 +27°C° 0 mm 2 m/S 718 mmHg 44%
    14:00 +28°C° 0 mm 2 m/S 717 mmHg 43%
    15:00 +27°C° 0 mm 2 m/S 718 mmHg 46%
    16:00 +26°C° 0 mm 2 m/S 718 mmHg 49%
    17:00 +25°C° 0 mm 1 m/S 718 mmHg 52%
    18:00 +24°C° 0 mm 1 m/S 718 mmHg 59%
    19:00 +22°C° 0 mm 1 m/S 719 mmHg 67%
    20:00 +20°C° 0 mm 1 m/S 719 mmHg 74%
    21:00 +20°C° 0 mm 1 m/S 720 mmHg 77%
    22:00 +19°C° 0 mm 1 m/S 720 mmHg 79%
    23:00 +19°C° 0 mm 1 m/S 720 mmHg 82%

    25 Juli, Dienstag

    Zeit Temperatur Niederschläge Wind Luftdruck Luftfeuchtigkeit
    00:00 +18°C° 0 mm 1 m/S 720 mmHg 84%
    01:00 +18°C° 0 mm 1 m/S 720 mmHg 86%
    02:00 +18°C° 0 mm 1 m/S 720 mmHg 89%
    03:00 +18°C° 0 mm 1 m/S 720 mmHg 89%
    04:00 +16°C° 0 mm 1 m/S 720 mmHg 90%
    05:00 +16°C° 0 mm 1 m/S 720 mmHg 91%
    06:00 +16°C° 0 mm 1 m/S 720 mmHg 89%
    07:00 +18°C° 0 mm 1 m/S 721 mmHg 88%
    08:00 +18°C° 0 mm 1 m/S 721 mmHg 86%
    09:00 +19°C° 0 mm 1 m/S 721 mmHg 80%
    10:00 +21°C° 0 mm 1 m/S 721 mmHg 74%
    11:00 +22°C° 0 mm 1 m/S 721 mmHg 67%
    12:00 +23°C° 0 mm 1 m/S 720 mmHg 65%
    13:00 +23°C° 0 mm 2 m/S 720 mmHg 63%
    14:00 +24°C° 0 mm 2 m/S 719 mmHg 61%
    15:00 +24°C° 0 mm 2 m/S 719 mmHg 64%
    16:00 +23°C° 0 mm 2 m/S 719 mmHg 68%
    17:00 +21°C° 0 mm 2 m/S 719 mmHg 71%
    18:00 +21°C° 0 mm 1 m/S 720 mmHg 76%
    19:00 +20°C° 0 mm 1 m/S 721 mmHg 82%
    20:00 +19°C° 0 mm 1 m/S 721 mmHg 88%
    21:00 +19°C° 0 mm 1 m/S 722 mmHg 89%
    22:00 +19°C° 0 mm 1 m/S 722 mmHg 90%
    23:00 +18°C° 0 mm 1 m/S 722 mmHg 91%

    26 Juli, Mittwoch

    Zeit Temperatur Niederschläge Wind Luftdruck Luftfeuchtigkeit
    00:00 +18°C° 0 mm 1 m/S 722 mmHg 91%
    01:00 +18°C° 0 mm 1 m/S 722 mmHg 92%
    02:00 +16°C° 0 mm 0 m/S 722 mmHg 93%
    03:00 +18°C° 0 mm 1 m/S 722 mmHg 92%
    04:00 +18°C° 0 mm 1 m/S 722 mmHg 92%
    05:00 +18°C° 0 mm 1 m/S 722 mmHg 92%
    06:00 +18°C° 0,1 mm 1 m/S 722 mmHg 91%
    07:00 +18°C° 0,1 mm 1 m/S 722 mmHg 89%
    08:00 +18°C° 0,1 mm 1 m/S 723 mmHg 88%
    09:00 +20°C° 0 mm 1 m/S 723 mmHg 81%
    10:00 +21°C° 0 mm 1 m/S 722 mmHg 75%
    11:00 +21°C° 0 mm 2 m/S 722 mmHg 69%
    12:00 +23°C° 0 mm 2 m/S 721 mmHg 66%
    13:00 +24°C° 0 mm 2 m/S 720 mmHg 64%
    14:00 +24°C° 0 mm 2 m/S 719 mmHg 61%
    15:00 +24°C° 0 mm 2 m/S 719 mmHg 63%
    16:00 +24°C° 0 mm 2 m/S 719 mmHg 65%
    17:00 +23°C° 0 mm 2 m/S 718 mmHg 67%
    18:00 +22°C° 0 mm 1 m/S 719 mmHg 73%
    19:00 +21°C° 0 mm 1 m/S 719 mmHg 78%
    20:00 +20°C° 0 mm 1 m/S 719 mmHg 84%
    21:00 +20°C° 0 mm 1 m/S 719 mmHg 85%
    22:00 +19°C° 0 mm 1 m/S 719 mmHg 86%
    23:00 +19°C° 0 mm 1 m/S 719 mmHg 86%
    Mehr zeigen